Location: Vienna
(48.2082°N, 16.3738°E)
Time: 09:53:08
(UTC+02:00)

ISS - Pass Details

Date: 15 July 2018
Orbit: 402 x 408 km, 51.6° (Epoch: 23 July)

Event Time Altitude Azimuth Distance (km) Brightness Sun altitude
Exits shadow 03:22:13 - 281° (W) 2,110 -0.4 -13.4°
Reaches altitude 10° 03:23:49 10° 287° (WNW) 1,471 -1.2 -13.2°
Maximum altitude 03:27:00 43° 1° (N) 583 -2.6 -12.9°
Drops below altitude 10° 03:30:10 10° 75° (ENE) 1,474 -0.2 -12.6°
Sets 03:32:19 0° 82° (E) 2,335 0.7 -12.4°
